Flag for U.S.A. Weather past 2 weeks in McAllen, Texas, U.S.A.

Now
100 °F

Passing clouds.


Feels Like: 102 °F
Forecast: 77 / 100 °F
Wind: 7 mph from South

Location: Miller International Airport

Current Time: Jul 29, 2014 at 4:07:17 PM

Latest Report: Jul 29, 2014 at 2:53 PM


Visibility: 10 mi

Pressure: 29.98 "Hg

Humidity: 30%

Dew point: 63 °F

Location of McAllenLocation

Historic Weather in McAllen — Graph

°F

McAllen temperature yesterday

Maximum temperature yesterday: 101 °F (at 2:53 PM)
Minimum temperature yesterday: 79 °F (at 5:53 AM)
Average temperature yesterday: 88 °F

Past Weeks' High & Low Weather Summary

 TemperatureHumidityPressure
High101 °F (Jul 24, 3:53 PM)97% (Jul 19, 7:53 AM)30.08 "Hg (Jul 19, 7:53 AM)
Low76 °F (Jul 29, 5:53 AM)27% (Jul 28, 2:53 PM)29.75 "Hg (Jul 17, 5:53 PM)
Average87 °F66%29.94 "Hg
* Reported Jul 14 2:53 PM — Jul 29 2:53 PM, McAllen, Weather by CustomWeather, © 2014

Note: Actual official high and low records may vary slightly from our data, if they occured in-between our weather recording intervals... More about our weather records

Advertising

McAllen weather history for previous 24 hours

 ConditionsComfort  
Time TempWeatherWind HumidityBarometerVisibility
2:53 PM
Jul 29
100 °FPassing clouds.7 mph30%29.98 "Hg10 mi
1:53 PM98 °FSunny.9 mph36%30.01 "Hg10 mi
12:53 PM94 °FPassing clouds.10 mph48%30.03 "Hg10 mi
11:53 AM94 °FPassing clouds.14 mph49%30.06 "Hg10 mi
10:53 AM90 °FSunny.13 mph57%30.07 "Hg10 mi
10:02 AM86 °FPartly sunny.13 mph70%30.08 "Hg10 mi
9:53 AM86 °FScattered clouds.14 mph72%30.08 "Hg10 mi
8:53 AM81 °FPassing clouds.5 mph85%30.08 "Hg8 mi
7:53 AM77 °FMostly cloudy.3 mph96%30.06 "Hg7 mi
6:53 AM76 °FClear.3 mph97%30.04 "Hg8 mi
5:53 AM76 °FClear.6 mph97%30.03 "Hg8 mi
4:53 AM77 °FClear.6 mph94%30.02 "Hg9 mi
3:53 AM78 °FClear.7 mph90%30.03 "Hg9 mi
2:53 AM79 °FClear.6 mph88%30.03 "Hg10 mi
1:53 AM78 °FPassing clouds.6 mph87%30.04 "Hg10 mi
12:53 AM81 °FClear.8 mph82%30.05 "Hg10 mi
11:53 PM
Jul 28
82 °FClear.12 mph77%30.06 "Hg10 mi
10:53 PM83 °FClear.14 mph72%30.05 "Hg10 mi
9:53 PM85 °FClear.13 mph65%30.03 "Hg10 mi
8:53 PM87 °FSunny.14 mph61%30.01 "Hg10 mi
7:53 PM90 °FSunny.17 mph56%30.00 "Hg10 mi
6:53 PM95 °FSunny.18 mph41%29.98 "Hg10 mi
5:53 PM97 °FPassing clouds.18 mph39%29.98 "Hg10 mi
4:53 PM100 °FPassing clouds.18 mph35%29.98 "Hg10 mi
Weather by CustomWeather, © 2014

See weather overviewHow to use our weather pages